Hourly Data Report for October 23, 2014

All times are specified in Local Standard Time (LST). Add 1 hour to adjust for Daylight Saving Time where and when it is observed.

TORONTO INTL A
ONTARIO

43°40'36.000" N
79°37'50.000" W
173.40 m
6158731
71624
YYZ

Download Data

Hourly Data (October 2014)
Hourly Data Report for October 23, 2014
Temp Definition
°C
Dew Point Temp Definition
°C
Rel Hum Definition
%
Wind Dir Definition
10's deg

Wind Spd Definition
km/h
Visibility Definition
km
Stn Press Definition
kPa
Hmdx Definition


Wind Chill Definition


Weather Definition


TIME
00:00 Legend Double Dagger 7.1 4.6 84 34 15 24.1 100.22     LegendNANA
01:00 Legend Double Dagger 6.8 4.3 84 34 19 24.1 100.18     Clear
02:00 Legend Double Dagger 6.3 4.1 86 34 19 24.1 100.16     LegendNANA
03:00 Legend Double Dagger 6.2 4.0 86 35 16 24.1 100.14     LegendNANA
04:00 Legend Double Dagger 6.0 3.7 85 34 16 24.1 100.18     Clear
05:00 Legend Double Dagger 5.8 3.7 86 35 18 24.1 100.17     LegendNANA
06:00 Legend Double Dagger 6.4 3.9 84 34 22 24.1 100.14     LegendNANA
07:00 Legend Double Dagger 6.3 3.5 82 35 24 24.1 100.08     Clear
08:00 Legend Double Dagger 7.4 3.7 77 35 22 24.1 100.10     LegendNANA
09:00 Legend Double Dagger 9.5 4.5 71 35 16 24.1 100.09     LegendNANA
10:00 Legend Double Dagger 11.8 5.7 66 34 19 24.1 100.03     Clear
11:00 Legend Double Dagger 13.6 5.3 57 36 23 24.1 99.97     LegendNANA
12:00 Legend Double Dagger 14.6 5.5 54 35 22 24.1 99.89     LegendNANA
13:00 Legend Double Dagger 15.5 6.6 55 34 21 24.1 99.86     Clear
14:00 Legend Double Dagger 16.0 6.0 51 34 22 24.1 99.79     LegendNANA
15:00 Legend Double Dagger 15.5 5.2 50 33 32 24.1 99.74     LegendNANA
16:00 Legend Double Dagger 14.5 4.6 51 33 27 24.1 99.74     Clear
17:00 Legend Double Dagger 12.8 3.8 54 36 24 24.1 99.74     LegendNANA
18:00 Legend Double Dagger 11.1 3.9 61 36 22 24.1 99.76     LegendNANA
19:00 Legend Double Dagger 10.0 3.8 65 33 23 24.1 99.75     Clear
20:00 Legend Double Dagger 9.1 4.7 74 33 23 24.1 99.72     LegendNANA
21:00 Legend Double Dagger 8.3 4.9 79 32 22 24.1 99.70     LegendNANA
22:00 Legend Double Dagger 7.8 4.8 81 34 19 24.1 99.68     Clear
23:00 Legend Double Dagger 7.0 4.5 84 32 19 24.1 99.67     LegendNANA

Notes on Data Quality.

Legend

  • E = Estimated
  • M = Missing
  • NA = Not Available
  • ‡ = Partner data that is not subject to review by the National Climate Archives
Date modified: